Latest Weather Observations for Wattamolla

IDN60801

Issued at 5:42 pm EST Saturday 20 July 2019 (issued every 10 minutes, with the page automatically refreshed every 10 minutes)

About weather observations | Map of weather stations | Latest weather observations for NSW | Other Formats
Station Details ID: 066208 Name: WATTAMOLLA AWS Lat: -34.14 Lon: 151.12 Height: 44.0 m
Data from the previous 72 hours. | See also: Recent months at Wattamolla
Date/Time
EST
Temp
°C
App
Temp
°C
Dew
Point
°C
Rel
Hum
%
Delta-T
°C
Wind Press
QNH
hPa
Press
MSL
hPa
Rain since
9am
mm
Dir  Spd
km/h
Gust
km/h
Spd
kts
Gust
kts
20/05:30pm - - - - - N 17 19 9 10 - - -
20/05:00pm - - - - - N 17 24 9 13 - - -
20/04:30pm - - - - - NNE 17 20 9 11 - - -
20/04:00pm - - - - - NNE 15 22 8 12 - - -
20/03:30pm - - - - - NNE 17 26 9 14 - - -
20/03:00pm - - - - - N 13 19 7 10 - - -
20/02:30pm - - - - - N 17 24 9 13 - - -
20/02:00pm - - - - - NNW 15 22 8 12 - - -
20/01:30pm - - - - - N 24 30 13 16 - - -
20/01:00pm - - - - - N 19 30 10 16 - - -
20/12:30pm - - - - - N 24 32 13 17 - - -
20/12:00pm - - - - - N 24 33 13 18 - - -
20/11:30am - - - - - NNW 24 37 13 20 - - -
20/11:00am - - - - - NNW 20 35 11 19 - - -
20/10:30am - - - - - NNW 15 28 8 15 - - -
20/10:00am - - - - - NNW 13 24 7 13 - - -
20/09:30am - - - - - NW 11 19 6 10 - - -
20/09:00am - - - - - NNW 7 13 4 7 - - -
20/08:30am - - - - - NW 11 15 6 8 - - -
20/08:00am - - - - - NW 17 24 9 13 - - -
20/07:30am - - - - - WNW 19 24 10 13 - - -
20/07:00am - - - - - WNW 20 26 11 14 - - -
20/06:30am - - - - - WNW 19 22 10 12 - - -
20/06:00am - - - - - WNW 20 22 11 12 - - -
20/05:30am - - - - - WNW 19 20 10 11 - - -
20/05:00am - - - - - WNW 17 19 9 10 - - -
20/04:30am - - - - - WNW 17 20 9 11 - - -
20/04:00am - - - - - NW 19 22 10 12 - - -
20/03:30am - - - - - NW 17 19 9 10 - - -
20/03:00am - - - - - WNW 17 20 9 11 - - -
20/02:30am - - - - - WNW 17 24 9 13 - - -
20/02:00am - - - - - WNW 19 28 10 15 - - -
20/01:30am - - - - - WNW 19 24 10 13 - - -
20/01:00am - - - - - W 15 20 8 11 - - -
20/12:30am - - - - - WNW 19 28 10 15 - - -
20/12:00am - - - - - WNW 19 24 10 13 - - -
 
Date/Time
EST
Temp
°C
App
Temp
°C
Dew
Point
°C
Rel
Hum
%
Delta-T
°C
Wind Press
QNH
hPa
Press
MSL
hPa
Rain since
9am
mm
Dir  Spd
km/h
Gust
km/h
Spd
kts
Gust
kts
19/11:30pm - - - - - WNW 20 26 11 14 - - -
19/11:00pm - - - - - WNW 19 22 10 12 - - -
19/10:30pm - - - - - WNW 17 22 9 12 - - -
19/10:00pm - - - - - W 19 26 10 14 - - -
19/09:30pm - - - - - W 20 28 11 15 - - -
19/09:00pm - - - - - WNW 19 26 10 14 - - -
19/08:30pm - - - - - WNW 19 24 10 13 - - -
19/08:00pm - - - - - WNW 17 22 9 12 - - -
19/07:30pm - - - - - WNW 17 19 9 10 - - -
19/07:00pm - - - - - NW 9 11 5 6 - - -
19/06:30pm - - - - - NW 9 11 5 6 - - -
19/06:00pm - - - - - NW 4 7 2 4 - - -
19/05:30pm - - - - - S 9 13 5 7 - - -
19/05:00pm - - - - - SSE 13 17 7 9 - - -
19/04:30pm - - - - - SSE 11 17 6 9 - - -
19/04:00pm - - - - - SE 13 17 7 9 - - -
19/03:30pm - - - - - SSE 11 15 6 8 - - -
19/03:00pm - - - - - SSE 13 17 7 9 - - -
19/02:30pm - - - - - SSE 13 15 7 8 - - -
19/02:00pm - - - - - SSE 9 13 5 7 - - -
19/01:30pm - - - - - SSE 13 15 7 8 - - -
19/01:00pm - - - - - S 13 17 7 9 - - -
19/12:30pm - - - - - S 15 22 8 12 - - -
19/12:00pm - - - - - S 15 20 8 11 - - -
19/11:30am - - - - - SSW 15 22 8 12 - - -
19/11:00am - - - - - SW 15 22 8 12 - - -
19/10:30am - - - - - WSW 20 30 11 16 - - -
19/10:00am - - - - - W 15 22 8 12 - - -
19/09:30am - - - - - W 22 32 12 17 - - -
19/09:00am - - - - - W 19 32 10 17 - - -
19/08:30am - - - - - W 22 35 12 19 - - -
19/08:00am - - - - - W 24 35 13 19 - - -
19/07:30am - - - - - WNW 19 32 10 17 - - -
19/07:00am - - - - - WNW 22 33 12 18 - - -
19/06:30am - - - - - NW 19 26 10 14 - - -
19/06:00am - - - - - NW 15 17 8 9 - - -
19/05:30am - - - - - NW 11 17 6 9 - - -
19/05:00am - - - - - NNW 15 17 8 9 - - -
19/04:30am - - - - - NW 11 13 6 7 - - -
19/04:00am - - - - - NW 9 11 5 6 - - -
19/03:30am - - - - - W 17 19 9 10 - - -
19/03:00am - - - - - W 11 15 6 8 - - -
19/02:30am - - - - - WSW 13 35 7 19 - - -
19/02:00am - - - - - WNW 13 19 7 10 - - -
19/01:30am - - - - - NW 9 13 5 7 - - -
19/01:00am - - - - - WNW 17 30 9 16 - - -
19/12:30am - - - - - WNW 11 19 6 10 - - -
19/12:00am - - - - - W 13 22 7 12 - - -
 
Date/Time
EST
Temp
°C
App
Temp
°C
Dew
Point
°C
Rel
Hum
%
Delta-T
°C
Wind Press
QNH
hPa
Press
MSL
hPa
Rain since
9am
mm
Dir  Spd
km/h
Gust
km/h
Spd
kts
Gust
kts
18/11:30pm - - - - - WNW 17 24 9 13 - - -
18/11:00pm - - - - - WNW 20 32 11 17 - - -
18/10:30pm - - - - - W 20 30 11 16 - - -
18/10:00pm - - - - - W 22 30 12 16 - - -
18/09:30pm - - - - - W 24 35 13 19 - - -
18/09:00pm - - - - - W 26 35 14 19 - - -
18/08:30pm - - - - - W 26 33 14 18 - - -
18/08:00pm - - - - - W 24 33 13 18 - - -
18/07:30pm - - - - - W 24 32 13 17 - - -
18/07:00pm - - - - - SW 20 30 11 16 - - -
18/06:30pm - - - - - W 17 20 9 11 - - -
18/06:00pm - - - - - WSW 11 13 6 7 - - -
18/05:30pm - - - - - SW 7 9 4 5 - - -
18/05:00pm - - - - - SSW 9 11 5 6 - - -
18/04:30pm - - - - - S 13 17 7 9 - - -
18/04:00pm - - - - - SSE 13 17 7 9 - - -
18/03:30pm - - - - - SSE 17 24 9 13 - - -
18/03:00pm - - - - - SSE 13 19 7 10 - - -
18/02:30pm - - - - - SSE 17 26 9 14 - - -
18/02:00pm - - - - - SSE 19 26 10 14 - - -
18/01:30pm - - - - - SSE 20 26 11 14 - - -
18/01:00pm - - - - - S 22 26 12 14 - - -
18/12:30pm - - - - - S 26 32 14 17 - - -
18/12:00pm - - - - - S 17 26 9 14 - - -
18/11:30am - - - - - SW 17 26 9 14 - - -
18/11:00am - - - - - SW 15 22 8 12 - - -
18/10:30am - - - - - SW 17 28 9 15 - - -
18/10:00am - - - - - WSW 22 33 12 18 - - -
18/09:30am - - - - - WSW 24 41 13 22 - - -
18/09:05am - - - - - W 28 46 15 25 - - -
18/09:00am - - - - - W 32 46 17 25 - - -
18/08:31am - - - - - W 28 50 15 27 - - -
18/08:30am - - - - - W 28 43 15 23 - - -
18/08:04am - - - - - W 35 52 19 28 - - -
18/08:00am - - - - - W 33 46 18 25 - - -
18/07:30am - - - - - W 30 48 16 26 - - -
18/07:17am - - - - - W 30 46 16 25 - - -
18/07:00am - - - - - W 26 39 14 21 - - -
18/06:30am - - - - - WNW 22 39 12 21 - - -
18/06:00am - - - - - WNW 19 30 10 16 - - -
18/05:30am - - - - - W 28 41 15 22 - - -
18/05:00am - - - - - W 28 44 15 24 - - -
18/04:30am - - - - - W 28 46 15 25 - - -
18/04:29am - - - - - W 28 46 15 25 - - -
18/04:00am - - - - - WNW 26 41 14 22 - - -
18/03:30am - - - - - W 30 57 16 31 - - -
18/03:25am - - - - - W 28 57 15 31 - - -
18/03:00am - - - - - NW 19 46 10 25 - - -
18/02:30am - - - - - WNW 20 33 11 18 - - -
18/02:10am - - - - - W 30 48 16 26 - - -
18/02:00am - - - - - W 28 44 15 24 - - -
18/01:30am - - - - - ENE 13 26 7 14 - - -
18/01:00am - - - - - WNW 26 44 14 24 - - -
18/12:50am - - - - - WNW 28 48 15 26 - - -
18/12:30am - - - - - WNW 22 35 12 19 - - -
18/12:00am - - - - - NW 24 39 13 21 - - -
 
Date/Time
EST
Temp
°C
App
Temp
°C
Dew
Point
°C
Rel
Hum
%
Delta-T
°C
Wind Press
QNH
hPa
Press
MSL
hPa
Rain since
9am
mm
Dir  Spd
km/h
Gust
km/h
Spd
kts
Gust
kts
17/11:30pm - - - - - NW 17 32 9 17 - - -
17/11:00pm - - - - - WNW 22 37 12 20 - - -
17/10:30pm - - - - - WNW 11 24 6 13 - - -
17/10:00pm - - - - - NW 4 11 2 6 - - -
17/09:30pm - - - - - WNW 13 20 7 11 - - -
17/09:00pm - - - - - WSW 15 39 8 21 - - -
17/08:31pm - - - - - SW 24 48 13 26 - - -
17/08:30pm - - - - - SW 26 48 14 26 - - -
17/08:00pm - - - - - SW 13 20 7 11 - - -
17/07:30pm - - - - - WSW 17 28 9 15 - - -
17/07:00pm - - - - - W 11 17 6 9 - - -
17/06:30pm - - - - - WSW 17 32 9 17 - - -
17/06:00pm - - - - - W 13 26 7 14 - - -

Other formats

Comma delimited format used in spreadsheet applications
http://www.bom.gov.au/fwo/IDN60801/IDN60801.95752.axf

JavaScript Object Notation format (JSON) in row-major order
http://www.bom.gov.au/fwo/IDN60801/IDN60801.95752.json

Data quality

Most of these data are generated automatically and are frequently updated. Quality checks on data are not normally performed. It is possible for incorrect values to appear. Refer to information at About Latest Weather Observations and please check the disclaimer before using these data.